sat.trackr.live / text

‹ back to catalog

STARLINK-36281

NORAD 67605 · 2026-018S

PAYLOAD ACTIVE UNKNOWN

§ Identity

Operator
Country
US
Launch date
2026-01-29
Launch site
AFWTR
Launch vehicle
Mass (kg)
RCS (m²)

Purposes: comms

External: N2YO · Heavens-Above · Gunter

§ Orbital elements

Epoch: 2026-05-25T04:13:28.656768Z

Period
93.91 min
Inclination
97.2861°
Eccentricity
0.0001009
Mean motion
15.33448607 rev/d
Perigee alt
464.8 km
Apogee alt
466.2 km
Semi-major
6,843.7 km
B*
6.6801e-4
RAAN
210.2717°
Arg perigee
96.4299°
Mean anomaly
263.7059°
Rev number
1,905

§ Raw data

STARLINK-362811 67605U 26018S   26145.17602612  .00021555  00000+0  66801-3 0  99952 67605  97.2861 210.2717 0001009  96.4299 263.7059 15.33448607 19056

JSON: /api/v1/satellites/67605 · /tle

For live sub-satellite position, see the globe view (requires WebGL).

§ Visibility from observer

Set your observer location to see the next 7 days of passes ≥ 10°. The values pass through the URL so the page stays shareable.

No JS? Fill the form by hand. The geolocation button needs JavaScript.